Point Pleasant, WV

2:58 PM EDT on May 29, 2017 (GMT -0400)
Point Pleasant

Weather History for K3I2 - January, 2006

Change the Weather History Date:

Monday, January 2, 2006

  Actual Average (KHTS) Record (KHTS)
Temperature  
Mean Temperature 52 °F -  
Max Temperature 60 °F 43 °F 72 °F (2000)
Min Temperature 44 °F 28 °F -5 °F (1899)
Degree Days  
Heating Degree Days 13    
Growing Degree Days 2 (Base 50)    
Moisture  
Dew Point 43 °F    
Average Humidity 69    
Maximum Humidity 87    
Minimum Humidity 31    
Precipitation  
Precipitation 0.00 in - - ()
Sea Level Pressure  
Sea Level Pressure 29.76 in    
Wind  
Wind Speed 3 mph (East)    
Max Wind Speed 8 mph    
Max Gust Speed -    
Visibility 9 miles    
Events Rain    
Averages and records for this station are not official NWS values.
T = Trace of Precipitation, MM = Missing Value Source: NWS Daily Summary

Daily Weather History Graph

Daily Weather History Graph

Search for Another Location

Airport or City:

Trip Planner

Search our weather history database for the weather conditions in past years. The results will help you decide how hot, cold, wet, or windy it might be!

Date:

Astronomy

Jan. 02, 2006 Rise Set
Actual Time 7:47 AM EST 5:17 PM EST
Civil Twilight 7:17 AM EST 5:47 PM EST
Nautical Twilight 6:44 AM EST 6:21 PM EST
Astronomical Twilight 6:11 AM EST 6:53 PM EST
Moon 10:09 AM EST (1/2) 8:25 PM EST (1/2)
Length of Visible Light 10h 30m
Length of Day
9h 30m
Waxing Crescent, 9% of the Moon is Illuminated
Jan 2
Waxing Crescent
Jan 6
First Quarter
Jan 14
Full
Jan 22
Last Quarter
Jan 29
New

Hourly Weather History & Observations

Time (EST) Temp. Windchill Dew Point Humidity Pressure Visibility Wind Dir Wind Speed Gust Speed Precip Events Conditions
12:00 AM 44.6 °F - 33.8 °F 66% 29.94 in 10.0 mi Calm Calm - N/A   Overcast
12:20 AM 44.6 °F 43.1 °F 33.8 °F 66% 29.93 in 10.0 mi East 3.5 mph - N/A   Overcast
12:40 AM 48.2 °F - 32.0 °F 54% 29.92 in 10.0 mi ESE 3.5 mph - N/A   Mostly Cloudy
1:00 AM 53.6 °F - 26.6 °F 35% 29.92 in 10.0 mi SSE 3.5 mph - N/A   Scattered Clouds
1:20 AM 53.6 °F - 26.6 °F 35% 29.92 in 10.0 mi Calm Calm - N/A   Mostly Cloudy
1:40 AM 53.6 °F - 26.6 °F 35% 29.91 in 10.0 mi Calm Calm - N/A   Mostly Cloudy
2:00 AM 53.6 °F - 26.6 °F 35% 29.91 in 10.0 mi East 3.5 mph - N/A   Mostly Cloudy
2:20 AM 53.6 °F - 24.8 °F 33% 29.90 in 10.0 mi East 3.5 mph - N/A   Overcast
3:00 AM 55.4 °F - 26.6 °F 33% 29.89 in 10.0 mi Calm Calm - N/A   Overcast
3:20 AM 55.4 °F - 24.8 °F 31% 29.87 in 10.0 mi ESE 4.6 mph - N/A   Overcast
3:40 AM 55.4 °F - 26.6 °F 33% 29.87 in 10.0 mi SE 3.5 mph - N/A   Overcast
4:00 AM 53.6 °F - 35.6 °F 51% 29.87 in 10.0 mi Calm Calm - N/A   Overcast
4:20 AM 50.0 °F - 39.2 °F 66% 29.86 in 10.0 mi East 3.5 mph - N/A   Overcast
4:40 AM 50.0 °F - 41.0 °F 71% 29.85 in 10.0 mi Calm Calm - N/A   Overcast
5:00 AM 50.0 °F - 42.8 °F 76% 29.85 in 10.0 mi NE 3.5 mph - N/A   Overcast
5:20 AM 50.0 °F - 42.8 °F 76% 29.85 in 10.0 mi Calm Calm - N/A   Overcast
6:00 AM 50.0 °F - 41.0 °F 71% 29.84 in 10.0 mi ENE 4.6 mph - N/A Rain Light Rain
6:20 AM 50.0 °F - 42.8 °F 76% 29.84 in 10.0 mi East 4.6 mph - N/A Rain Light Rain
6:40 AM 50.0 °F - 42.8 °F 76% 29.84 in 4.0 mi East 4.6 mph - N/A Rain Heavy Rain
7:00 AM 48.2 °F - 42.8 °F 82% 29.86 in 3.0 mi Calm Calm - N/A Rain Light Rain
7:20 AM 48.2 °F - 44.6 °F 87% 29.86 in 2.0 mi Calm Calm - N/A Rain Rain
7:40 AM 48.2 °F - 42.8 °F 82% 29.85 in 2.5 mi Calm Calm - N/A Rain Heavy Rain
8:00 AM 48.2 °F - 44.6 °F 87% 29.84 in 0.8 mi NE 4.6 mph - N/A   Overcast
8:40 AM 50.0 °F - 44.6 °F 82% 29.84 in 2.0 mi East 4.6 mph - N/A Rain Light Rain
9:00 AM 50.0 °F - 44.6 °F 82% 29.83 in 10.0 mi ESE 3.5 mph - N/A   Overcast
9:20 AM 50.0 °F - 44.6 °F 82% 29.82 in 10.0 mi East 4.6 mph - N/A   Overcast
9:40 AM 50.0 °F - 44.6 °F 82% 29.83 in 10.0 mi Calm Calm - N/A   Overcast
10:00 AM 50.0 °F - 46.4 °F 87% 29.82 in 10.0 mi East 4.6 mph - N/A   Overcast
10:20 AM 51.8 °F - 46.4 °F 82% 29.82 in 10.0 mi Calm Calm - N/A   Overcast
11:00 AM 53.6 °F - 46.4 °F 77% 29.79 in 10.0 mi ENE 3.5 mph - N/A   Overcast
11:40 AM 53.6 °F - 48.2 °F 82% 29.76 in 10.0 mi ENE 3.5 mph - N/A   Mostly Cloudy
12:00 PM 55.4 °F - 48.2 °F 77% 29.75 in 10.0 mi Calm Calm - N/A   Clear
12:20 PM 57.2 °F - 48.2 °F 72% 29.72 in 10.0 mi East 3.5 mph - N/A   Scattered Clouds
12:40 PM 59.0 °F - 50.0 °F 72% 29.71 in 10.0 mi Calm Calm - N/A   Clear
1:00 PM 59.0 °F - 50.0 °F 72% 29.70 in 10.0 mi East 3.5 mph - N/A   Scattered Clouds
1:20 PM 59.0 °F - 50.0 °F 72% 29.69 in 10.0 mi East 5.8 mph - N/A   Mostly Cloudy
1:40 PM 60.8 °F - 50.0 °F 68% 29.67 in 10.0 mi ENE 4.6 mph - N/A   Overcast
2:00 PM 60.8 °F - 50.0 °F 68% 29.68 in 10.0 mi ENE 3.5 mph - N/A   Scattered Clouds
2:20 PM 60.8 °F - 50.0 °F 68% 29.66 in 10.0 mi ENE 5.8 mph - N/A   Clear
2:40 PM 59.0 °F - 50.0 °F 72% 29.65 in 10.0 mi ENE 5.8 mph - N/A   Clear
3:00 PM 60.8 °F - 50.0 °F 68% 29.66 in 10.0 mi East 3.5 mph - N/A   Mostly Cloudy
3:20 PM 60.8 °F - 50.0 °F 68% 29.65 in 10.0 mi Calm Calm - N/A   Mostly Cloudy
4:00 PM 60.8 °F - 50.0 °F 68% 29.64 in 10.0 mi East 4.6 mph - N/A   Overcast
4:20 PM 60.8 °F - 50.0 °F 68% 29.63 in 10.0 mi East 6.9 mph - N/A   Overcast
5:00 PM 59.0 °F - 50.0 °F 72% 29.62 in 10.0 mi East 4.6 mph - N/A   Mostly Cloudy
5:20 PM 59.0 °F - 50.0 °F 72% 29.62 in 10.0 mi East 3.5 mph - N/A   Scattered Clouds
5:40 PM 59.0 °F - 50.0 °F 72% 29.63 in 10.0 mi East 6.9 mph - N/A   Scattered Clouds
6:00 PM 57.2 °F - 50.0 °F 77% 29.62 in 10.0 mi East 5.8 mph - N/A   Scattered Clouds
6:20 PM 57.2 °F - 50.0 °F 77% 29.62 in 10.0 mi East 6.9 mph - N/A   Scattered Clouds
6:40 PM 57.2 °F - 50.0 °F 77% 29.61 in 10.0 mi East 5.8 mph - N/A   Scattered Clouds
7:00 PM 57.2 °F - 50.0 °F 77% 29.62 in 10.0 mi East 6.9 mph - N/A   Clear
7:20 PM 55.4 °F - 48.2 °F 77% 29.61 in 10.0 mi East 3.5 mph - N/A   Clear
7:40 PM 55.4 °F - 48.2 °F 77% 29.60 in 10.0 mi East 4.6 mph - N/A   Scattered Clouds
8:00 PM 55.4 °F - 50.0 °F 82% 29.60 in 10.0 mi East 4.6 mph - N/A   Scattered Clouds
8:20 PM 57.2 °F - 50.0 °F 77% 29.60 in 10.0 mi East 4.6 mph - N/A   Scattered Clouds
9:00 PM 55.4 °F - 50.0 °F 82% 29.64 in 10.0 mi WSW 3.5 mph - N/A   Overcast
9:20 PM 59.0 °F - 48.2 °F 67% 29.62 in 10.0 mi WSW 8.1 mph - N/A   Overcast
9:40 PM 57.2 °F - 48.2 °F 72% 29.62 in 10.0 mi Calm Calm - N/A   Mostly Cloudy
10:00 PM 57.2 °F - 48.2 °F 72% 29.60 in 10.0 mi Calm Calm - N/A   Overcast
10:20 PM 55.4 °F - 50.0 °F 82% 29.59 in 10.0 mi Calm Calm - N/A Rain Light Rain
11:00 PM 55.4 °F - 50.0 °F 82% 29.61 in 10.0 mi SSW 4.6 mph - N/A   Scattered Clouds
11:20 PM 55.4 °F - 50.0 °F 82% 29.62 in 10.0 mi SW 6.9 mph - N/A   Clear